sat.trackr.live / text

‹ back to catalog

STARLINK-36314

NORAD 68741 · 2026-082P

PAYLOAD ACTIVE UNKNOWN

§ Identity

Operator
Country
US
Launch date
2026-04-15
Launch site
AFWTR
Launch vehicle
Mass (kg)
RCS (m²)

Purposes: comms

External: N2YO · Heavens-Above · Gunter

§ Orbital elements

Epoch: 2026-09-19T22:05:57.204672Z

Period
93.91 min
Inclination
97.2859°
Eccentricity
0.0002030
Mean motion
15.33449934 rev/d
Perigee alt
464.1 km
Apogee alt
466.9 km
Semi-major
6,843.7 km
B*
4.2159e-4
RAAN
125.0340°
Arg perigee
89.1704°
Mean anomaly
270.9771°
Rev number
2,421

§ Raw data

STARLINK-363141 68741U 26082P   26262.92080098  .00013562  00000+0  42159-3 0  99982 68741  97.2859 125.0340 0002030  89.1704 270.9771 15.33449934 24214

JSON: /api/v1/satellites/68741 · /tle

For live sub-satellite position, see the globe view (requires WebGL).

§ Visibility from observer

Set your observer location to see the next 7 days of passes ≥ 10°. The values pass through the URL so the page stays shareable.

No JS? Fill the form by hand. The geolocation button needs JavaScript.